Location: Mascot Post Office (historical)
(40.2645°N, 99.5462°W)
Time: 22:35:59
(UTC+00:00)

ATLAS 2AS CENTAUR R/B - Visible Passes

Search period start: 29 October 2020 00:00
Search period end: 08 November 2020 00:00
Orbit: 939 x 1273 km, 63.7° (Epoch: 27 October)

Date Brightness Start Highest point End Pass type
(mag) Time Alt. Az. Time Alt. Az. Time Alt. Az.
29 Oct 4.4 00:23:01 10° NNW 00:27:36 17° NNE 00:31:48 11° ENE visible
29 Oct 3.3 02:13:19 10° NNW 02:19:15 46° NNE 02:19:15 46° NNE visible
29 Oct 5.0 04:04:50 10° NW 04:06:42 18° WNW 04:06:42 18° WNW visible
30 Oct 3.4 01:28:36 10° NNW 01:35:22 35° NE 01:36:05 34° NE visible
30 Oct 4.2 03:19:33 10° NW 03:23:32 33° NW 03:23:32 33° NW visible
31 Oct 3.9 00:43:55 10° NNW 00:49:59 25° NE 00:53:00 20° ENE visible
31 Oct 3.1 02:34:31 10° NW 02:40:27 60° NW 02:40:27 60° NW visible
31 Oct 4.2 23:59:16 10° NNW 00:04:27 19° NNE 00:09:22 10° ENE visible
01 Nov 2.7 01:49:39 10° NNW 01:57:01 64° NE 01:57:28 62° ENE visible
01 Nov 4.7 03:41:39 10° NW 03:44:56 21° W 03:44:56 21° W visible
02 Nov 3.2 01:04:53 10° NNW 01:11:56 43° NE 01:14:36 31° E visible
02 Nov 3.7 02:56:08 10° NW 03:02:05 40° W 03:02:05 40° W visible
03 Nov 3.6 00:20:10 10° NNW 00:26:40 31° NE 00:31:53 13° E visible
03 Nov 2.9 02:10:58 10° NW 02:18:13 67° WSW 02:19:22 58° SSW visible
04 Nov 2.6 01:26:00 10° NNW 01:33:26 81° ENE 01:36:51 33° SE visible
04 Nov 4.8 03:18:44 10° WNW 03:23:22 19° WSW 03:24:22 18° WSW visible
05 Nov 2.9 00:41:11 10° NNW 00:48:28 54° NE 00:54:37 12° SE visible
05 Nov 4.2 02:32:50 10° NW 02:38:59 31° WSW 02:42:09 22° SSW visible
05 Nov 3.4 23:56:26 10° NNW 00:03:18 37° NE 00:09:38 10° ESE visible
06 Nov 3.4 01:47:29 10° NW 01:54:28 51° WSW 02:00:21 13° S visible
07 Nov 2.8 01:02:25 10° NW 01:09:47 80° WSW 01:16:30 10° SSE visible
07 Nov 5.3 02:56:22 10° WNW 02:59:23 13° WSW 03:02:18 10° SW visible
